This is the latest recevied weather packets stored in our database for station/object N4ZIQ. If no packets are shown the sender has not sent any weather packets the latest 10 day(s).
| Time | Temp. | Humidity | Pressure | Rain* | Wind** | Luminosity | Snow |
|---|---|---|---|---|---|---|---|
| 1777673447 | 32.22° C | 47% | 1009 hPa | 0 mm | - | 327 W/m² | - |
| 1777673147 | 32.22° C | 48% | 1009.2 hPa | 0 mm | - | 346 W/m² | - |
| 1777672853 | 31.67° C | 50% | 1009.1 hPa | 0 mm | - | 357 W/m² | - |
| 1777672547 | 31.67° C | 50% | 1009 hPa | 0 mm | - | 146 W/m² | - |
| 1777672245 | 31.67° C | 49% | 1009.2 hPa | 0 mm | - | 190 W/m² | - |
| 1777671951 | 31.67° C | 51% | 1008.9 hPa | 0 mm | - | 171 W/m² | - |
| 1777671646 | 31.67° C | 49% | 1009 hPa | 0 mm | - | 207 W/m² | - |
| 1777671345 | 31.67° C | 48% | 1009.1 hPa | 0 mm | - | 243 W/m² | - |
| 1777671054 | 31.11° C | 48% | 1009.1 hPa | 0 mm | - | 223 W/m² | - |
| 1777670749 | 31.67° C | 48% | 1009.2 hPa | 0 mm | - | 167 W/m² | - |
| 1777670448 | 31.67° C | 48% | 1009.2 hPa | 0 mm | - | 179 W/m² | - |
| 1777670154 | 31.67° C | 47% | 1009.2 hPa | 0 mm | - | 209 W/m² | - |
| 1777669848 | 32.22° C | 44% | 1009.2 hPa | 0 mm | - | 241 W/m² | - |
| 1777669546 | 32.78° C | 44% | 1009.2 hPa | 0 mm | - | 357 W/m² | - |
| 1777669251 | 32.78° C | 46% | 1009.4 hPa | 0 mm | - | 534 W/m² | - |
| 1777668946 | 32.22° C | 46% | 1009.6 hPa | 0 mm | - | 487 W/m² | - |
| 1777668646 | 32.22° C | 44% | 1009.4 hPa | 0 mm | - | 404 W/m² | - |
| 1777668352 | 32.78° C | 43% | 1009.4 hPa | 0 mm | - | 619 W/m² | - |
| 1777668045 | 32.78° C | 44% | 1009.4 hPa | 0 mm | - | 543 W/m² | - |
| 1777667745 | 32.22° C | 46% | 1009.4 hPa | 0 mm | - | 661 W/m² | - |
| 1777667449 | 32.22° C | 46% | 1009.3 hPa | 0 mm | - | 450 W/m² | - |
| 1777667147 | 32.22° C | 47% | 1009.4 hPa | 0 mm | - | 566 W/m² | - |
| 1777666848 | 32.22° C | 46% | 1009.6 hPa | 0 mm | - | 566 W/m² | - |
| 1777666552 | 32.22° C | 45% | 1009.7 hPa | 0 mm | - | 649 W/m² | - |
| 1777666249 | 32.22° C | 48% | 1009.8 hPa | 0 mm | - | 689 W/m² | - |
* Rain latest hour (hover to see other rain measurements)
** Current wind speed in m/s (hover to see current wind gust speed)